Погода в Пайвине

Россия / Новосибирская область     54°24′06″N   84°07′26″E
темп.,
°C
ветер,
м/с
пор.,
м/с
влажн.,
%
обл.,
%
осадки,
мм/ч
давл.,
гПа
погр.,
м
18 января, пн
пн1801:00−13ю41097100 0.1 1018238
04:00−11ю61395100 0.0 1015367
07:00−9ююз71592100 0.1 1012483
10:00−9юз61492100 0.1 1010534
13:00−8зюз71192100 0.3 1010645
16:00−8зюз71291100 0.1 1010836
19:00−12зюз51294100 0.3 1013514
22:00−16зюз4119799 0.1 1015312
19 января, вт
вт1901:00−20зюз489999 0.1 1018145
04:00−23зюз349986 0.0 102060
07:00−25зюз339970 0.0 102235
10:00−25юз339634 0.0 102327
13:00−20юз479217 0.0 1023298
16:00−19юз389314 0.0 1023347
19:00−23з349830 0.0 102432
22:00−27з3310072 0.0 102623
20 января, ср
ср2001:00−29зсз2310074 0.0 102820
04:00−31сз1110016 0.0 103019
07:00−32с011008 0.0 103219
10:00−32в11940 0.0 103419
13:00−25в11840 0.0 1034116
16:00−23св119011 0.0 103321
19:00−26в128835 0.0 103320
22:00−24вюв338793 0.0 103149
21 января, чт
чт2101:00−22вюв358397 0.0 1028111
04:00−18юв4879100 0.0 1025202
07:00−15юв51096100 0.6 1022268
10:00−14ююв3996100 0.7 1020292
13:00−11юз4894100 0.9 1018354
16:00−9ююз3894100 0.1 1017406
19:00−12ю3397100 0.2 101573
22:00−11ююз3795100 0.0 1012250
22 января, пт
пт2201:00−11юз3695100 0.4 1010266
04:00−12з4895100 0.8 1009371
07:00−19з4109898 0.9 1011191
10:00−23з4109880 0.0 1016228
13:00−21зюз589477 0.0 1018317
16:00−20юз489477 0.0 1020377
19:00−24ююз479773 0.0 1021113
22:00−26ююз369868 0.0 1023111